Location: Batang Balui
(2.7000°N, 113.7833°E)
Time: 18:10:03
(UTC+00:00)

Envisat - Pass Details

Date: 10 December 2022
Orbit: 763 x 765 km, 98.2° (Epoch: 29 January)

Event Time Altitude Azimuth Distance (km) Brightness Sun altitude
Exits shadow 20:20:48 53° 192° (SSW) 932 3.4 -27.9°
Drops below altitude 10° 20:24:38 10° 192° (SSW) 2,296 5.6 -27.0°
Sets 20:26:56 0° 192° (SSW) 3,223 6.4 -26.5°
